OK1JIL-13 Weather Reports


time (UTC)temp
C
wind
direction
speed
KPH
gust
KPH
rain 1hr
cm
rain 24hr
cm
rain mn
cm
humidity
%
barometer
mb
20260507215000 12 0.0 0.0 0.00 0.00 0.00 60 1016.1
20260507214000 12 0.0 0.0 0.00 0.00 0.00 60 1016.0
20260507213000 12 0.0 0.0 0.00 0.00 0.00 60 1016.0
20260507212000 13 0.0 0.0 0.00 0.00 0.00 60 1015.9
20260507211000 12 0.0 0.0 0.00 0.00 0.00 61 1015.9
20260507210000 12 0.0 0.0 0.00 0.00 0.00 61 1015.8
20260507205000 12 0.0 0.0 0.00 0.00 0.00 61 1015.6
20260507204000 12 0.0 0.0 0.00 0.00 0.00 63 1015.6
20260507203000 12 0.0 0.0 0.00 0.00 0.00 61 1015.6
20260507202000 12 0.0 0.0 0.00 0.00 0.00 61 1015.5
20260507201000 12 0.0 0.0 0.00 0.00 0.00 61 1015.4
20260507200000 11 0.0 0.0 0.00 0.00 0.00 62 1015.4
20260507195000 11 0.0 0.0 0.00 0.00 0.00 62 1015.2
20260507194000 11 0.0 0.0 0.00 0.00 0.00 59 1015.2
20260507193000 12 0.0 0.0 0.00 0.00 0.00 59 1015.1
20260507192000 12 0.0 0.0 0.00 0.00 0.00 60 1014.9
20260507191000 12 0.0 0.0 0.00 0.00 0.00 61 1014.8
20260507190000 12 0.0 0.0 0.00 0.00 0.00 62 1014.7
20260507185000 12 0.0 0.0 0.00 0.00 0.00 59 1014.6
20260507184000 12 0.0 0.0 0.00 0.00 0.00 58 1014.5
20260507183000 12 0.0 0.0 0.00 0.00 0.00 58 1014.5
20260507182000 12 0.0 0.0 0.00 0.00 0.00 60 1014.4
20260507181000 12 0.0 0.0 0.00 0.00 0.00 62 1014.3
20260507180000 12 0.0 0.0 0.00 0.00 0.00 61 1014.3
20260507175000 12 0.0 0.0 0.00 0.00 0.00 62 1014.3
20260507174000 12 0.0 0.0 0.00 0.00 0.00 66 1014.4
20260507173000 12 0.0 0.0 0.00 0.00 0.00 62 1014.3
20260507172000 13 0.0 0.0 0.00 0.00 0.00 58 1014.1
20260507171000 13 0.0 0.0 0.00 0.00 0.00 57 1014.0
20260507170000 13 0.0 0.0 0.00 0.00 0.00 57 1013.9
20260507165000 13 0.0 0.0 0.00 0.00 0.00 54 1013.9
20260507164000 13 0.0 0.0 0.00 0.00 0.00 57 1013.8
20260507163000 13 0.0 0.0 0.00 0.00 0.00 56 1013.7
20260507162000 13 0.0 0.0 0.00 0.00 0.00 56 1013.7
20260507161000 14 0.0 0.0 0.00 0.00 0.00 54 1013.6
20260507160001 14 0.0 0.0 0.00 0.00 0.00 57 1013.6
20260507155001 13 0.0 0.0 0.00 0.00 0.00 56 1013.6
20260507154001 15 0.0 0.0 0.00 0.00 0.00 57 1013.6
20260507153001 15 0.0 0.0 0.00 0.00 0.00 57 1013.7
20260507152001 13 0.0 0.0 0.00 0.00 0.00 59 1013.6
20260507151001 15 0.0 0.0 0.00 0.00 0.00 57 1013.7
20260507150001 15 0.0 0.0 0.00 0.00 0.00 58 1013.6
20260507145001 15 0.0 0.0 0.00 0.00 0.00 60 1013.5
20260507144001 15 0.0 0.0 0.00 0.00 0.00 58 1013.5
20260507143001 13 0.0 0.0 0.00 0.00 0.00 61 1013.6
20260507142001 13 0.0 0.0 0.00 0.00 0.00 60 1013.7
20260507141002 14 0.0 0.0 0.00 0.00 0.00 60 1013.6
20260507140001 13 0.0 0.0 0.00 0.00 0.00 62 1013.5
20260507135001 14 0.0 0.0 0.00 0.00 0.00 62 1013.6
20260507134000 13 0.0 0.0 0.00 0.00 0.00 62 1013.5
20260507133001 14 0.0 0.0 0.00 0.00 0.00 62 1013.5
20260507132001 14 0.0 0.0 0.00 0.00 0.00 62 1013.5
20260507131001 15 0.0 0.0 0.00 0.00 0.00 61 1013.5
20260507130001 15 0.0 0.0 0.00 0.00 0.00 63 1013.4
20260507125001 14 0.0 0.0 0.00 0.00 0.00 63 1013.3
20260507124000 14 0.0 0.0 0.00 0.00 0.00 62 1013.2
20260507123001 15 0.0 0.0 0.00 0.00 0.00 61 1013.2
20260507122001 15 0.0 0.0 0.00 0.00 0.00 63 1013.1
20260507121003 13 0.0 0.0 0.00 0.00 0.00 66 1013.0
20260507115959 15 0.0 0.0 0.00 0.00 0.00 61 1012.9
20260507114959 15 0.0 0.0 0.00 0.00 0.00 63 1013.0
20260507113959 15 0.0 0.0 0.00 0.00 0.00 63 1012.9
20260507112959 15 0.0 0.0 0.00 0.00 0.00 62 1012.8
20260507112002 15 0.0 0.0 0.00 0.00 0.00 65 1012.7
20260507110959 15 0.0 0.0 0.00 0.00 0.00 67 1012.7
20260507105959 15 0.0 0.0 0.00 0.00 0.00 64 1012.6
20260507104959 13 0.0 0.0 0.00 0.00 0.00 67 1012.5
20260507103959 13 0.0 0.0 0.00 0.00 0.00 67 1012.5
20260507102959 13 0.0 0.0 0.00 0.00 0.00 66 1012.4
20260507101959 13 0.0 0.0 0.00 0.00 0.00 68 1012.5
20260507100959 12 0.0 0.0 0.00 0.00 0.00 68 1012.4
20260507095959 13 0.0 0.0 0.00 0.00 0.00 67 1012.3
20260507094959 13 0.0 0.0 0.00 0.00 0.00 66 1012.3
20260507093959 12 0.0 0.0 0.00 0.00 0.00 67 1012.2
20260507092959 12 0.0 0.0 0.00 0.00 0.00 70 1012.1
20260507091959 12 0.0 0.0 0.00 0.00 0.00 68 1012.0
20260507090959 12 0.0 0.0 0.00 0.00 0.00 69 1011.8
20260507085959 12 0.0 0.0 0.00 0.00 0.00 69 1011.7
20260507084959 12 0.0 0.0 0.00 0.00 0.00 70 1011.7
20260507083959 12 0.0 0.0 0.00 0.00 0.00 69 1011.5
20260507082959 13 0.0 0.0 0.00 0.00 0.00 67 1011.3
20260507081959 13 0.0 0.0 0.00 0.00 0.00 67 1011.3
20260507080959 13 0.0 0.0 0.00 0.00 0.00 65 1011.2
20260507075959 13 0.0 0.0 0.00 0.00 0.00 67 1011.1
20260507074959 12 0.0 0.0 0.00 0.00 0.00 68 1011.0
20260507073959 13 0.0 0.0 0.00 0.00 0.00 67 1010.9
20260507072959 13 0.0 0.0 0.00 0.00 0.00 66 1010.8
20260507071959 14 0.0 0.0 0.00 0.00 0.00 64 1010.7
20260507070959 13 0.0 0.0 0.00 0.00 0.00 65 1010.7
20260507065959 13 0.0 0.0 0.00 0.00 0.00 68 1010.6
20260507064959 13 0.0 0.0 0.00 0.00 0.00 67 1010.6
20260507063959 13 0.0 0.0 0.00 0.00 0.00 67 1010.5
20260507062959 13 0.0 0.0 0.00 0.00 0.00 66 1010.3
20260507061959 13 0.0 0.0 0.00 0.00 0.00 68 1010.2
20260507060959 12 0.0 0.0 0.00 0.00 0.00 71 1010.0
20260507055959 12 0.0 0.0 0.00 0.00 0.00 70 1009.8
20260507054959 12 0.0 0.0 0.00 0.00 0.00 67 1009.8
20260507053959 13 0.0 0.0 0.00 0.00 0.00 67 1009.8
20260507052959 12 0.0 0.0 0.00 0.00 0.00 71 1009.7
20260507051959 12 0.0 0.0 0.00 0.00 0.00 72 1009.7
20260507050959 12 0.0 0.0 0.00 0.00 0.00 72 1009.4
20260507045959 13 0.0 0.0 0.00 0.00 0.00 67 1009.3
20260507044959 13 0.0 0.0 0.00 0.00 0.00 65 1009.3
20260507043959 14 0.0 0.0 0.00 0.00 0.00 65 1009.2
20260507042959 13 0.0 0.0 0.00 0.00 0.00 65 1009.0
20260507041959 13 0.0 0.0 0.00 0.00 0.00 65 1008.9
20260507041001 13 0.0 0.0 0.00 0.00 0.00 65 1008.8
20260507040000 13 0.0 0.0 0.00 0.00 0.00 65 1008.8
20260507034959 13 0.0 0.0 0.00 0.00 0.00 66 1008.8
20260507033959 13 0.0 0.0 0.00 0.00 0.00 65 1008.7
20260507033000 13 0.0 0.0 0.00 0.00 0.00 65 1008.7
20260507031959 13 0.0 0.0 0.00 0.00 0.00 65 1008.7
20260507030959 13 0.0 0.0 0.00 0.00 0.00 68 1008.7
20260507025959 12 0.0 0.0 0.00 0.00 0.00 70 1008.8
20260507024959 12 0.0 0.0 0.00 0.00 0.00 68 1008.7
20260507023959 13 0.0 0.0 0.00 0.00 0.00 67 1008.6
20260507022959 13 0.0 0.0 0.00 0.00 0.00 68 1008.7
20260507021959 13 0.0 0.0 0.00 0.00 0.00 67 1008.6
20260507020959 12 0.0 0.0 0.00 0.00 0.00 70 1008.6
20260507015959 12 0.0 0.0 0.00 0.00 0.00 70 1008.6
20260507014959 13 0.0 0.0 0.00 0.00 0.00 65 1008.6
20260507013959 13 0.0 0.0 0.00 0.00 0.00 65 1008.5
20260507012959 13 0.0 0.0 0.00 0.00 0.00 65 1008.5
20260507011959 13 0.0 0.0 0.00 0.00 0.00 65 1008.4
20260507010959 13 0.0 0.0 0.00 0.00 0.00 66 1008.5
20260507005959 12 0.0 0.0 0.00 0.00 0.00 70 1008.4
20260507004959 12 0.0 0.0 0.00 0.00 0.00 68 1008.1
20260507003959 11 0.0 0.0 0.00 0.00 0.00 70 1007.8
20260507002959 12 0.0 0.0 0.00 0.00 0.00 67 1007.4
20260507001959 12 0.0 0.0 0.00 0.00 0.00 66 1007.3
20260507001001 12 0.0 0.0 0.00 0.00 0.00 63 1007.3
20260506235957 13 0.0 0.0 0.00 0.00 0.00 63 1007.4
20260506234957 13 0.0 0.0 0.00 0.00 0.00 65 1007.5
20260506233957 12 0.0 0.0 0.00 0.00 0.00 68 1007.6
20260506232957 13 0.0 0.0 0.00 0.00 0.00 66 1008.0
20260506231958 13 0.0 0.0 0.00 0.00 0.00 64 1008.6
20260506230957 13 0.0 0.0 0.00 0.00 0.00 64 1008.9
20260506225957 13 0.0 0.0 0.00 0.00 0.00 64 1008.8
20260506224957 13 0.0 0.0 0.00 0.00 0.00 66 1008.8
20260506223957 13 0.0 0.0 0.00 0.00 0.00 65 1008.7
20260506222957 13 0.0 0.0 0.00 0.00 0.00 65 1008.1
20260506221957 13 0.0 0.0 0.00 0.00 0.00 65 1007.9
20260506220957 13 0.0 0.0 0.00 0.00 0.00 64 1007.9
20260506215957 14 0.0 0.0 0.00 0.00 0.00 63 1007.9